Preview of NWS' New Version of Forecast
This preview is not operational and should not be used for support decisions.

Regional Weather Roundup (RWR)

Issued by National Weather Service (NWS)

                            
000
ASUS46 KSEW 200810
RWRWA 

WASHINGTON REGIONAL WEATHER ROUNDUP
NATIONAL WEATHER SERVICE SEATTLE WA
100 AM PDT TUE AUG 20 2019

NOTE:"FAIR" INDICATES FEW OR NO CLOUDS BELOW 12,000 FEET WITH NO 
SIGNIFICANT WEATHER AND/OR OBSTRUCTIONS TO VISIBILITY.

WAZ507-509-555>559-200900-
SEATTLE, TACOMA, EVERETT, AND VICINITY
  
CITY           SKY/WX    TMP DP  RH WIND       PRES   REMARKS
EVERETT        PTCLDY    57  51  80 N3        29.98S                  
BOEING FIELD   PTCLDY    62  51  67 CALM      29.96S                  
RENTON         CLEAR     64  55  72 N6        29.95F                  
SEATAC AIRPORT PTCLDY    62  52  69 N6        29.97S                  
JBLM-MCCHORD   CLEAR     59  56  91 CALM      29.96                   
PUYALLUP       FAIR      57  55  94 CALM      29.96F                  
BREMERTON      CLEAR     58  50  75 NE3       29.97F                  
JBLM-FT LEWIS  NOT AVBL                                               
TACOMA NARROWS CLEAR     60  50  69 N3        29.96F                  
$$
 
WAZ001-503-506-510-514-515-200900-
NORTH INTERIOR
  
CITY           SKY/WX    TMP DP  RH WIND       PRES   REMARKS
BELLINGHAM     MOCLDY    56  51  84 CALM      29.97F                  
FRIDAY HARBOR  MOCLDY    52  49  89 CALM      29.98S                  
EASTSOUND      MOCLDY    57  52  82 CALM      29.96S                  
PORT ANGELES   CLEAR     52  50  93 CALM      29.98F                  
EDIZ HOOK      FAIR      55  52  89 S3        29.98S                  
PORT TOWNSEND  FAIR      50  48  93 CALM      29.97S                  
NAS WHIDBEY    MOCLDY    56  50  80 CALM      30.01F                  
ARLINGTON      PTCLDY    55  51  86 N3        29.97F                  
BURLINGTON     CLEAR     55  50  82 CALM      29.97S                  
$$
 
WAZ020-022-039-040-504-511-512-200900-
SOUTHWEST INTERIOR
  
CITY           SKY/WX    TMP DP  RH WIND       PRES   REMARKS
SHELTON        CLEAR     53  51  93 CALM      29.95S                  
OLYMPIA        CLEAR     58  52  80 CALM      29.96S                  
CHEHALIS       FAIR      55  55 100 CALM      29.96S                  
KELSO          CLEAR     58  56  93 CALM      29.97R                  
VANCOUVER      CLEAR     61  55  81 CALM      29.94S                  
SCAPPOOSE, OR  CLEAR     59  55  87 CALM      29.93S                  
PORTLAND, OR   PTCLDY    66  56  70 CALM      29.94S                  
$$
 
WAZ021-516-517-200900-
WASHINGTON COAST
  
CITY           SKY/WX    TMP DP  RH WIND       PRES   REMARKS
FORKS          CLEAR     52  50  93 CALM      29.97S                  
HOQUIAM        CLEAR     57  55  93 E5        29.96F                  
ASTORIA, OR    CLEAR     55  52  89 SE3       29.95S                  
$$
 
WAZ019-023-024-040-567>569-200900-
CASCADE MOUNTAINS AND COLUMBIA GORGE
  
CITY           SKY/WX    TMP DP  RH WIND       PRES   REMARKS
STAMPEDE PASS  CLEAR     60  38  43 CALM      30.05F                  
TROUTDALE, OR  CLEAR     61  55  81 CALM      29.94R                  
HOOD RIVER, OR SUNNY     61  50  67 SW3       29.92S                  
THE DALLES, OR CLEAR     67  49  52 W5        29.88R                  
$$

WAZ026-027-041>044-520-521-200900-
EAST SLOPES
  
CITY           SKY/WX    TMP DP  RH WIND       PRES   REMARKS
OMAK           PTCLDY    66  41  40 NW7       29.92R                  
WENATCHEE      PTCLDY    71  46  40 W7        29.92R                  
ELLENSBURG     PTCLDY    57  47  69 NE7       29.94S                  
YAKIMA         PTCLDY    64  51  62 W10       29.91R                  
SUNNYSIDE ARPT MOSUNNY   60  55  83 NE3       29.88S                  
YAKIMA TC      FAIR      66  39  36 E10       29.90                   
$$

WAZ028-034-035-200900-
COLUMBIA BASIN
  
CITY           SKY/WX    TMP DP  RH WIND       PRES   REMARKS
EPHRATA        PTCLDY    68  49  50 N3        29.90R                  
MOSES LAKE     PTCLDY    66  51  58 CALM      29.90S                  
PASCO          PTCLDY    61  56  83 N6        29.87R                  
RICHLAND ARPT  MOSUNNY   67  56  70 S5        29.87                   
HERMISTON, OR  PTCLDY    62  47  57 SE3       29.88R                  
$$

WAZ036>038-200900-
NORTHEAST WASHINGTON
  
CITY           SKY/WX    TMP DP  RH WIND       PRES   REMARKS
SPOKANE GEIGER PTCLDY    66  42  41 CALM      29.97S                  
SPOKANE FELTS  CLEAR     60  45  57 NE5       29.97R                  
FAIRCHILD AFB  NOT AVBL                                               
COEURDALENE,ID CLEAR     58  48  69 E5        29.99R                  
DEER PARK      CLEAR     52  44  74 CALM      29.97S                  
$$

WAZ029>033-200900-
SOUTHEAST WASHINGTON
  
CITY           SKY/WX    TMP DP  RH WIND       PRES   REMARKS
PULLMAN        CLEAR     56  42  59 CALM      30.00R                  
LEWISTON, ID   CLEAR     69  41  36 S6        29.92S                  
WALLA WALLA    PTCLDY    70  45  40 E8        29.90R                  
PENDLETON, OR  PTCLDY    67  45  45 SE6       29.91R                  
$$